Weather History for Brisbane, QU

Change the Weather History Date:

Tuesday, May 13, 2014

  Actual Average Record
Temperature  
Mean Temperature 66 °F -  
Max Temperature 75 °F 72 °F 78 °F (2005)
Min Temperature 56 °F 55 °F 46 °F (2011)
Growing Degree Days 16 (Base 50)    
Moisture  
Dew Point 55 °F    
Average Humidity 67    
Maximum Humidity 88    
Minimum Humidity 38    
Precipitation  
Precipitation 0.00 in 0.11 in - ()
Sea Level Pressure  
Sea Level Pressure 30.26 in    
Wind  
Wind Speed 10 mph ()    
Max Wind Speed 15 mph    
Max Gust Speed -    
Visibility 8.1 miles    
Events Rain    
Averages and records for this station are not official NWS values.
T = Trace of Precipitation, MM = Missing Value Source: Averaged Metar Reports

Daily Weather History Graph

Daily Weather History Graph

Search for Another Location

Airport:

Trip Planner

Search our weather history database for the weather conditions in past years. The results will help you decide how hot, cold, wet, or windy it might be!

Date:

Astronomy

May. 13, 2014 Rise Set
Actual Time 6:19 AM AEST 5:08 PM AEST
Civil Twilight 5:54 AM AEST 5:32 PM AEST
Nautical Twilight 5:26 AM AEST 6:00 PM AEST
Astronomical Twilight 4:58 AM AEST 6:28 PM AEST
Moon 4:01 PM AEST (5/13) 4:24 AM AEST (5/13)
Length of Visible Light 11h 38m
Length of Day
10h 48m
Waxing Gibbous, 96% of the Moon is Illuminated
May 13
Waxing Gibbous
May 15
Full
May 21
Last Quarter
May 29
New
Jun 6
First Quarter

Hourly Weather History & Observations

Time (AEST) Temp. Dew Point Humidity Pressure Visibility Wind Dir Wind Speed Gust Speed Precip Events Conditions
12:00 AM 59 °F 54 °F 77% 30.30 in 19 mi SSW 10.4 mph - -   Partly Cloudy
12:00 AM 59.0 °F 53.6 °F 82% 30.27 in - SSW 10.4 mph - N/A   Clear
12:30 AM 60.8 °F 53.6 °F 77% 30.27 in - SSW 9.2 mph - N/A   Clear
1:00 AM 59 °F 54 °F 77% 30.29 in - SSW 10.4 mph - -  
1:00 AM 59.0 °F 53.6 °F 82% 30.27 in - SSW 10.4 mph - N/A   Clear
1:30 AM 60.8 °F 53.6 °F 77% 30.27 in - SSW 10.4 mph - N/A   Clear
2:00 AM 57.2 °F 53.6 °F 88% 30.24 in - SSW 9.2 mph - N/A   Clear
2:30 AM 59.0 °F 53.6 °F 82% 30.24 in - SSW 9.2 mph - N/A   Clear
3:00 AM 57 °F 54 °F 85% 30.25 in 19 mi SSW 9.2 mph - -   Partly Cloudy
3:00 AM 57.2 °F 53.6 °F 88% 30.24 in - SSW 9.2 mph - N/A   Clear
3:30 AM 57.2 °F 53.6 °F 88% 30.24 in - SSW 8.1 mph - N/A   Clear
4:00 AM 58 °F 54 °F 81% 30.25 in - SSW 8.1 mph - -  
4:00 AM 57.2 °F 53.6 °F 88% 30.24 in - SSW 8.1 mph - N/A   Clear
4:30 AM 59.0 °F 53.6 °F 82% 30.24 in - SSW 9.2 mph - N/A   Clear
5:00 AM 59.0 °F 53.6 °F 82% 30.24 in - SSW 9.2 mph - N/A   Clear
5:30 AM 59.0 °F 53.6 °F 82% 30.27 in 6.2 mi SSW 9.2 mph - N/A   Partly Cloudy
6:00 AM 59 °F 53 °F 76% 30.27 in 19 mi SSW 10.4 mph - -   Partly Cloudy
6:00 AM 59.0 °F 53.6 °F 82% 30.27 in 6.2 mi SSW 10.4 mph - N/A   Partly Cloudy
6:30 AM 59.0 °F 53.6 °F 82% 30.27 in 6.2 mi SSW 10.4 mph - N/A   Partly Cloudy
7:00 AM 60 °F 54 °F 74% 30.29 in - SSW 11.5 mph - -  
7:00 AM 59.0 °F 53.6 °F 82% 30.27 in 6.2 mi SSW 11.5 mph - N/A   Partly Cloudy
7:30 AM 60.8 °F 55.4 °F 82% 30.27 in 6.2 mi SSW 11.5 mph - N/A   Partly Cloudy
8:00 AM 62.6 °F 55.4 °F 77% 30.30 in 6.2 mi SSW 12.7 mph - N/A   Partly Cloudy
8:30 AM 66.2 °F 55.4 °F 68% 30.30 in 6.2 mi SSW 13.8 mph - N/A   Partly Cloudy
9:00 AM 68 °F 55 °F 53% 30.31 in 22 mi SSW 12.7 mph - -   Partly Cloudy
9:00 AM 68.0 °F 55.4 °F 64% 30.30 in 6.2 mi SSW 12.7 mph - N/A   Partly Cloudy
9:30 AM 69.8 °F 53.6 °F 56% 30.30 in 6.2 mi South 9.2 mph - N/A   Partly Cloudy
10:00 AM 72 °F 53 °F 40% 30.31 in - South 10.4 mph - -  
10:00 AM 71.6 °F 53.6 °F 53% 30.30 in 6.2 mi South 10.4 mph - N/A   Partly Cloudy
10:30 AM 73.4 °F 53.6 °F 50% 30.27 in 6.2 mi SSE 8.1 mph - N/A   Partly Cloudy
11:00 AM 73.4 °F 53.6 °F 50% 30.27 in 6.2 mi SE 10.4 mph - N/A   Partly Cloudy
11:30 AM 73.4 °F 53.6 °F 50% 30.27 in 6.2 mi SE 12.7 mph - N/A   Partly Cloudy
12:00 PM 75 °F 54 °F 38% 30.25 in 19 mi SE 12.7 mph - -   Partly Cloudy
12:00 PM 75.2 °F 53.6 °F 47% 30.24 in 6.2 mi SE 12.7 mph - N/A   Partly Cloudy
12:30 PM 75.2 °F 55.4 °F 50% 30.24 in 6.2 mi SE 15.0 mph - N/A   Partly Cloudy
1:00 PM 74 °F 56 °F 42% 30.24 in - ESE 15.0 mph - -  
1:00 PM 75.2 °F 55.4 °F 50% 30.21 in 6.2 mi ESE 15.0 mph - N/A   Partly Cloudy
1:30 PM 75.2 °F 55.4 °F 50% 30.21 in 6.2 mi ESE 15.0 mph - N/A   Partly Cloudy
2:00 PM 75.2 °F 53.6 °F 47% 30.21 in 6.2 mi SE 13.8 mph - N/A   Partly Cloudy
2:30 PM 75.2 °F 53.6 °F 47% 30.21 in 6.2 mi ESE 12.7 mph - N/A   Partly Cloudy
3:00 PM 73 °F 53 °F 39% 30.22 in 19 mi SE 11.5 mph - -   Partly Cloudy
3:00 PM 73.4 °F 53.6 °F 50% 30.21 in 6.2 mi SE 11.5 mph - N/A   Partly Cloudy
3:30 PM 73.4 °F 53.6 °F 50% 30.21 in 6.2 mi ESE 11.5 mph - N/A   Partly Cloudy
4:00 PM 73 °F 53 °F 39% 30.23 in - SE 10.4 mph - -  
4:00 PM 73.4 °F 53.6 °F 50% 30.21 in 6.2 mi SE 10.4 mph - N/A   Partly Cloudy
4:30 PM 71.6 °F 53.6 °F 53% 30.21 in 6.2 mi SE 11.5 mph - N/A   Partly Cloudy
5:00 PM 71.6 °F 53.6 °F 53% 30.24 in 6.2 mi SSE 9.2 mph - N/A   Partly Cloudy
5:30 PM 69.8 °F 55.4 °F 60% 30.24 in 6.2 mi South 9.2 mph - N/A   Partly Cloudy
6:00 PM 69 °F 56 °F 54% 30.25 in 16 mi SSE 9.2 mph - -   Mostly Cloudy
6:00 PM 69.8 °F 55.4 °F 60% 30.24 in 6.2 mi SSE 9.2 mph - N/A   Partly Cloudy
6:30 PM 69.8 °F 57.2 °F 64% 30.24 in 6.2 mi SSE 9.2 mph - N/A   Partly Cloudy
7:00 PM 69 °F 58 °F 59% 30.29 in - SE 10.4 mph - -  
7:00 PM 68.0 °F 57.2 °F 68% 30.27 in 6.2 mi SE 10.4 mph - N/A Rain Light Rain Showers
7:30 PM 66.2 °F 60.8 °F 83% 30.27 in 6.2 mi SE 9.2 mph - N/A Rain Light Rain Showers
8:00 PM 66.2 °F 59.0 °F 78% 30.27 in 6.2 mi SE 6.9 mph - N/A Rain Light Rain Showers
8:30 PM 66.2 °F 59.0 °F 78% 30.27 in 6.2 mi SSE 9.2 mph - N/A Rain Light Rain Showers
9:00 PM 65 °F 58 °F 72% 30.28 in 16 mi SSE 8.1 mph - - Rain Light Rain Showers
9:00 PM 64.4 °F 59.0 °F 83% 30.27 in 6.2 mi SSE 8.1 mph - N/A   Mostly Cloudy
9:30 PM 66.2 °F 57.2 °F 73% 30.27 in 6.2 mi South 8.1 mph - N/A Rain Light Rain Showers
10:00 PM 65 °F 58 °F 70% 30.28 in - South 10.4 mph - -  
10:00 PM 64.4 °F 57.2 °F 77% 30.27 in 6.2 mi South 10.4 mph - N/A   Mostly Cloudy
11:00 PM 62.6 °F 57.2 °F 82% 30.27 in 6.2 mi SSW 9.2 mph - N/A   Scattered Clouds
11:30 PM 60.8 °F 55.4 °F 82% 30.24 in 6.2 mi SSW 10.4 mph - N/A   Partly Cloudy